Location: Doussal
(55.6167°N, 116.8333°W)
Time: 12:38:37
(UTC+00:00)

METEOR M2 - Visible Passes

Search period start: 08 December 2023 00:00
Search period end: 18 December 2023 00:00
Orbit: 818 x 826 km, 98.4° (Epoch: 08 December)

Date Brightness Start Highest point End Pass type
(mag) Time Alt. Az. Time Alt. Az. Time Alt. Az.
08 Dec ? 00:13:57 10° SSE 00:19:19 76° ENE 00:24:44 10° NNW visible
08 Dec ? 01:55:50 10° SW 02:00:04 23° W 02:04:20 10° NW visible
08 Dec ? 12:24:40 10° NE 12:28:23 19° E 12:32:04 10° SE visible
08 Dec ? 14:03:55 10° NNE 14:09:20 88° ESE 14:14:43 10° SSW visible
08 Dec ? 23:54:02 10° SE 23:59:17 56° ENE 00:04:34 10° N visible
09 Dec ? 01:35:00 10° SSW 01:39:46 31° W 01:44:34 10° NNW visible
09 Dec ? 12:05:23 10° NE 12:07:58 13° E 12:10:31 10° ESE visible
09 Dec ? 13:43:50 10° NNE 13:49:13 66° ESE 13:54:32 10° S visible
10 Dec ? 01:14:24 10° SSW 01:19:31 43° W 01:24:39 10° NNW visible
10 Dec ? 13:23:49 10° NNE 13:29:02 48° E 13:34:11 10° S visible
10 Dec ? 15:04:12 10° N 15:09:09 38° WNW 15:14:03 10° SW visible
11 Dec ? 00:54:00 10° S 00:59:18 59° WSW 01:04:40 10° NNW visible
11 Dec ? 02:38:41 10° WSW 02:40:40 12° W 02:42:39 10° WNW visible
11 Dec ? 13:03:53 10° NNE 13:08:47 35° E 13:13:40 10° SSE visible
11 Dec ? 14:43:59 10° N 14:49:11 51° WNW 14:54:21 10° SW visible
12 Dec ? 00:33:46 10° SSE 00:39:10 80° WSW 00:44:36 10° NNW visible
12 Dec ? 02:16:49 10° SW 02:20:13 17° W 02:23:38 10° NW visible
12 Dec ? 12:44:03 10° NE 12:48:30 26° E 12:52:55 10° SE visible
12 Dec ? 14:23:48 10° NNE 14:29:10 69° WNW 14:34:29 10° SSW visible
13 Dec ? 00:13:42 10° SSE 00:19:05 77° ENE 00:24:29 10° NNW visible
13 Dec ? 01:55:38 10° SW 01:59:51 23° W 02:04:05 10° NW visible
13 Dec ? 12:24:24 10° NE 12:28:09 19° E 12:31:51 10° SE visible
13 Dec ? 14:03:41 10° NNE 14:09:06 89° ESE 14:14:28 10° SSW visible
13 Dec ? 23:53:47 10° SE 23:59:03 57° ENE 00:04:19 10° N visible
14 Dec ? 01:34:46 10° SSW 01:39:32 31° W 01:44:19 10° NNW visible
14 Dec ? 12:05:08 10° NE 12:07:43 13° E 12:10:18 10° ESE visible
14 Dec ? 13:43:36 10° NNE 13:48:58 66° ESE 13:54:17 10° S visible
15 Dec ? 01:14:11 10° SSW 01:19:16 43° W 01:24:24 10° NNW visible
15 Dec ? 13:23:34 10° NNE 13:28:47 48° E 13:33:57 10° S visible
15 Dec ? 15:03:58 10° N 15:08:54 38° WNW 15:13:48 10° SW visible
16 Dec ? 00:53:46 10° S 00:59:05 58° W 01:04:25 10° NNW visible
16 Dec ? 02:38:30 10° WSW 02:40:25 12° W 02:42:22 10° WNW visible
16 Dec ? 13:03:38 10° NNE 13:08:33 35° E 13:13:25 10° SSE visible
16 Dec ? 14:43:44 10° N 14:48:56 51° WNW 14:54:05 10° SW visible
17 Dec ? 00:33:32 10° SSE 00:38:55 80° WSW 00:44:21 10° NNW visible
17 Dec ? 02:16:36 10° SW 02:19:59 17° W 02:23:22 10° NW visible
17 Dec ? 12:43:48 10° NE 12:48:15 26° E 12:52:40 10° SSE visible
17 Dec ? 14:23:33 10° NNE 14:28:54 68° WNW 14:34:13 10° SSW visible
